{"data":{"norad_id":67091,"intl_designator":"2025-298S","name":"STARLINK-36097","alt_names":[],"object_type":"PAYLOAD","status":"ACTIVE","operator":null,"country":"US","launch_date":"2025-12-14","launch_site_code":"AFWTR","launch_vehicle":null,"mission":null,"orbit_class":"UNKNOWN","rcs_meters":null,"size_class":null,"mass_kg":null,"dimensions":null,"purposes":["comms"],"wikipedia_slug":null,"has_3d_model":false,"image_url":null,"decayed_at":null,"tle_current":{"epoch":"2026-05-25T03:21:09.768096Z","epoch_age_seconds":56832,"freshness":"FRESH","line1":"1 67091U 25298S   26145.13969639  .00085119  00000+0  24175-2 0  9997","line2":"2 67091  69.9947 170.7040 0006280 288.9287  71.1210 15.35734247 24940","mean_motion":15.35734247,"eccentricity":0.000628,"inclination_deg":69.9947,"raan_deg":170.704,"arg_perigee_deg":288.9287,"mean_anomaly_deg":71.121,"bstar":0.0024175,"rev_number":2494,"period_min":93.766223082736,"perigee_km":454.44688932551,"apogee_km":463.03400740065,"semimajor_km":6836.8774483631,"source":"CELESTRAK","updated_at":"2026-05-25T13:38:21.469731Z"}}}